GW2412 Weather Reports


Display with metric or nautical units.
time (UTC)temp
F
wind
direction
speed
MPH
gust
MPH
rain 1hr
in
rain 24hr
in
rain mn
in
humidity
%
barometer
mb
20260503231530 70 317 13.0 24.0 0.00 0.00 0.00 1 1009.5
20260503231013 70 301 17.0 24.0 0.00 0.00 0.00 1 1009.5
20260503230511 69 324 14.0 27.0 0.00 0.00 0.00 1 1009.6
20260503230038 69 311 19.0 27.0 0.00 0.00 0.00 1 1009.5
20260503225513 70 352 15.0 23.0 0.00 0.00 0.00 1 1009.6
20260503225012 70 333 15.0 25.0 0.00 0.00 0.00 1 1009.5
20260503224528 70 300 16.0 25.0 0.00 0.00 0.00 1 1009.8
20260503224011 69 332 17.0 25.0 0.00 0.00 0.00 1 1009.8
20260503223512 70 336 17.0 26.0 0.00 0.00 0.00 1 1009.5
20260503223028 70 294 14.0 22.0 0.00 0.00 0.00 1 1009.7
20260503222512 69 299 15.0 23.0 0.00 0.00 0.00 1 1009.9
20260503222012 69 298 18.0 23.0 0.00 0.00 0.00 1 1009.6
20260503221534 69 355 15.0 23.0 0.00 0.00 0.00 1 1010.0
20260503221014 70 312 17.0 23.0 0.00 0.00 0.00 1 1009.9
20260503220512 69 321 16.0 23.0 0.00 0.00 0.00 1 1009.8
20260503220037 69 342 13.0 22.0 0.00 0.00 0.00 1 1010.1
20260503215513 69 360 13.0 32.0 0.00 0.00 0.00 1 1010.0
20260503215011 69 344 18.0 32.0 0.00 0.00 0.00 1 1010.2
20260503214546 70 287 15.0 28.0 0.00 0.00 0.00 1 1010.3
20260503214013 69 360 19.0 28.0 0.00 0.00 0.00 1 1010.4
20260503213512 69 336 15.0 24.0 0.00 0.00 0.00 1 1010.3
20260503213036 69 309 16.0 23.0 0.00 0.00 0.00 1 1010.6
20260503212513 69 306 11.0 23.0 0.00 0.00 0.00 1 1010.6
20260503212018 70 325 12.0 23.0 0.00 0.00 0.00 1 1010.6
20260503211534 69 335 16.0 20.0 0.00 0.00 0.00 1 1010.4
20260503211015 69 275 10.0 22.0 0.00 0.00 0.00 1 1010.7
20260503210513 69 318 17.0 22.0 0.00 0.00 0.00 1 1010.6
20260503210031 68 326 13.0 28.0 0.00 0.00 0.00 1 1010.8
20260503205517 68 322 16.0 28.0 0.00 0.00 0.00 1 1010.8
20260503205013 69 306 13.0 21.0 0.00 0.00 0.00 1 1011.0
20260503204536 69 294 14.0 30.0 0.00 0.00 0.00 1 1011.1
20260503204013 69 302 18.0 30.0 0.00 0.00 0.00 1 1010.9
20260503203513 68 309 18.0 25.0 0.00 0.00 0.00 1 1011.0
20260503203037 68 306 17.0 24.0 0.00 0.00 0.00 1 1010.9
20260503202516 68 330 10.0 24.0 0.00 0.00 0.00 1 1011.0
20260503202013 68 321 17.0 24.0 0.00 0.00 0.00 1 1010.9
20260503201537 68 275 16.0 21.0 0.00 0.00 0.00 1 1011.3
20260503201014 67 290 10.0 21.0 0.00 0.00 0.00 1 1011.5
20260503200513 67 257 15.0 19.0 0.00 0.00 0.00 1 1011.6
20260503200032 67 311 11.0 20.0 0.00 0.00 0.00 1 1011.6
20260503195513 67 279 13.0 26.0 0.00 0.00 0.00 1 1011.9
20260503195013 67 306 16.0 26.0 0.00 0.00 0.00 1 1011.9
20260503194534 67 324 16.0 22.0 0.00 0.00 0.00 1 1011.7
20260503194014 67 313 12.0 20.0 0.00 0.00 0.00 1 1011.8
20260503193512 66 290 12.0 23.0 0.00 0.00 0.00 1 1011.8
20260503193030 66 355 15.0 24.0 0.00 0.00 0.00 1 1011.8
20260503192514 67 340 16.0 23.0 0.00 0.00 0.00 1 1011.8
20260503192013 66 293 15.0 20.0 0.00 0.00 0.00 1 1012.1
20260503191538 66 311 15.0 26.0 0.00 0.00 0.00 1 1012.1
20260503191014 67 329 16.0 26.0 0.00 0.00 0.00 1 1011.9
20260503190513 66 293 11.0 17.0 0.00 0.00 0.00 1 1012.3
20260503190041 66 338 11.0 20.0 0.00 0.00 0.00 1 1012.4
20260503185510 66 338 16.0 23.0 0.00 0.00 0.00 1 1012.4
20260503185016 64 350 13.0 23.0 0.00 0.00 0.00 1 1012.5
20260503184533 65 327 18.0 23.0 0.00 0.00 0.00 1 1012.4
20260503184012 65 316 14.0 21.0 0.00 0.00 0.00 1 1012.4
20260503183512 64 334 14.0 21.0 0.00 0.00 0.00 1 1012.6
20260503183040 64 315 13.0 17.0 0.00 0.00 0.00 1 1012.8
20260503182513 65 340 11.0 17.0 0.00 0.00 0.00 1 1012.7
20260503182011 65 339 13.0 25.0 0.00 0.00 0.00 1 1012.6
20260503181552 65 327 15.0 25.0 0.00 0.00 0.00 1 1012.7
20260503181011 64 343 11.0 18.0 0.00 0.00 0.00 1 1012.8
20260503180513 65 298 12.0 18.0 0.00 0.00 0.00 1 1013.0
20260503180045 64 360 11.0 20.0 0.00 0.00 0.00 1 1013.1
20260503175516 64 325 11.0 17.0 0.00 0.00 0.00 1 1013.1
20260503175014 65 340 10.0 17.0 0.00 0.00 0.00 1 1013.0
20260503174534 64 335 13.0 20.0 0.00 0.00 0.00 1 1013.1
20260503174015 64 321 14.0 22.0 0.00 0.00 0.00 1 1013.1
20260503173511 64 5 12.0 22.0 0.00 0.00 0.00 1 1013.1
20260503173031 64 355 13.0 22.0 0.00 0.00 0.00 1 1013.1
20260503172511 63 327 17.0 23.0 0.00 0.00 0.00 1 1013.0
20260503172011 63 345 16.0 23.0 0.00 0.00 0.00 1 1013.1
20260503171533 63 355 16.0 22.0 0.00 0.00 0.00 1 1013.3
20260503171014 63 325 16.0 21.0 0.00 0.00 0.00 1 1013.2
20260503170512 63 343 16.0 21.0 0.00 0.00 0.00 1 1013.1
20260503151012 59 338 16.0 20.0 0.00 0.00 0.00 1 1013.3
20260503150514 58 340 14.0 22.0 0.00 0.00 0.00 1 1013.4
20260503131014 46 289 4.0 7.0 0.00 0.00 0.00 1 1014.2
20260503130515 45 286 5.0 6.0 0.00 0.00 0.00 1 1014.1
20260503110523 38 338 4.0 6.0 0.00 0.00 0.00 1 1014.9
20260503081553 41 328 3.0 5.0 0.00 0.00 0.00 1 1016.1
20260503081016 42 303 3.0 5.0 0.00 0.00 0.00 1 1016.1
20260503080514 44 269 1.0 6.0 0.00 0.00 0.00 1 1016.1
20260503072518 37 332 4.0 6.0 0.00 0.00 0.00 1 1016.2
20260503072015 37 332 2.0 6.0 0.00 0.00 0.00 1 1016.1
20260503071551 37 332 4.0 6.0 0.00 0.00 0.00 1 1016.1
20260503071015 38 332 3.0 4.0 0.00 0.00 0.00 1 1016.1
20260503070515 39 332 1.0 3.0 0.00 0.00 0.00 1 1016.1
20260503055015 41 332 4.0 5.0 0.00 0.00 0.00 1 1016.5
20260503054547 41 341 2.0 4.0 0.00 0.00 0.00 1 1016.4
20260503054015 41 341 2.0 6.0 0.00 0.00 0.00 1 1016.4
20260503053519 40 341 3.0 6.0 0.00 0.00 0.00 1 1016.6
20260503053050 39 5 3.0 5.0 0.00 0.00 0.00 1 1016.6
20260503052519 40 9 4.0 5.0 0.00 0.00 0.00 1 1016.6
20260503052019 40 343 2.0 3.0 0.00 0.00 0.00 1 1016.5
20260503051549 40 360 1.0 6.0 0.00 0.00 0.00 1 1016.6
20260503051016 41 338 4.0 6.0 0.00 0.00 0.00 1 1016.7
20260503050516 41 329 4.0 5.0 0.00 0.00 0.00 1 1016.6
20260503050459 41 348 4.0 5.0 0.00 0.00 0.00 1 1016.7
20260503045523 43 333 2.0 4.0 0.00 0.00 0.00 1 1016.8
20260503045020 44 333 3.0 5.0 0.00 0.00 0.00 1 1016.8
20260503044619 44 333 2.0 5.0 0.00 0.00 0.00 1 1016.7
20260503044014 45 333 3.0 5.0 0.00 0.00 0.00 1 1016.7
20260503043514 45 348 3.0 5.0 0.00 0.00 0.00 1 1016.7
20260503043040 47 242 2.0 4.0 0.00 0.00 0.00 1 1016.8
20260503042514 48 242 2.0 7.0 0.00 0.00 0.00 1 1017.0
20260503042014 50 242 3.0 7.0 0.00 0.00 0.00 1 1016.8
20260503041837 50 242 3.0 4.0 0.00 0.00 0.00 1 1016.7
20260503041020 49 242 3.0 5.0 0.00 0.00 0.00 1 1016.8
20260503040524 49 242 4.0 5.0 0.00 0.00 0.00 1 1016.7
20260503040049 49 232 2.0 5.0 0.00 0.00 0.00 1 1016.8
20260503035513 50 232 4.0 5.0 0.00 0.00 0.00 1 1016.9
20260503035027 51 232 4.0 6.0 0.00 0.00 0.00 1 1016.8
20260503034550 52 232 5.0 7.0 0.00 0.00 0.00 1 1016.8
20260503034017 52 232 6.0 7.0 0.00 0.00 0.00 1 1017.0
20260503033515 51 236 5.0 8.0 0.00 0.00 0.00 1 1016.9
20260503033113 51 263 3.0 7.0 0.00 0.00 0.00 1 1016.8
20260503032511 51 355 2.0 3.0 0.00 0.00 0.00 1 1016.7
20260503032026 51 355 2.0 4.0 0.00 0.00 0.00 1 1016.7
20260503031542 51 355 2.0 5.0 0.00 0.00 0.00 1 1016.6
20260503031013 52 355 3.0 5.0 0.00 0.00 0.00 1 1016.6
20260503030518 53 330 1.0 4.0 0.00 0.00 0.00 1 1016.4
20260503030109 54 330 1.0 4.0 0.00 0.00 0.00 1 1016.5
20260503025526 55 330 3.0 4.0 0.00 0.00 0.00 1 1016.4
20260503025019 55 101 0.0 0.0 0.00 0.00 0.00 1 1016.5
20260503024605 55 101 0.0 0.0 0.00 0.00 0.00 1 1016.2
20260503024018 55 101 0.0 0.0 0.00 0.00 0.00 1 1016.4
20260503023519 55 101 0.0 0.0 0.00 0.00 0.00 1 1016.4
20260503023111 56 101 0.0 2.0 0.00 0.00 0.00 1 1016.4
20260503022519 56 101 0.0 3.0 0.00 0.00 0.00 1 1016.3
20260503022016 56 101 2.0 4.0 0.00 0.00 0.00 1 1016.2
20260503021612 56 101 2.0 4.0 0.00 0.00 0.00 1 1016.1
20260503021018 56 101 2.0 4.0 0.00 0.00 0.00 1 1016.2
20260503020516 56 101 3.0 4.0 0.00 0.00 0.00 1 1016.0
20260503020111 57 101 2.0 4.0 0.00 0.00 0.00 1 1015.9
20260503015519 57 101 3.0 4.0 0.00 0.00 0.00 1 1016.0
20260503015017 57 101 2.0 4.0 0.00 0.00 0.00 1 1016.2
20260503014600 58 101 2.0 4.0 0.00 0.00 0.00 1 1016.1
20260503014017 58 101 3.0 6.0 0.00 0.00 0.00 1 1016.3
20260503013517 59 101 3.0 7.0 0.00 0.00 0.00 1 1016.1
20260503013058 59 101 5.0 7.0 0.00 0.00 0.00 1 1016.2
20260503012521 60 101 5.0 7.0 0.00 0.00 0.00 1 1016.2
20260503012016 60 101 3.0 7.0 0.00 0.00 0.00 1 1016.5
20260503011820 60 101 3.0 7.0 0.00 0.00 0.00 1 1016.4
20260503011020 60 101 3.0 7.0 0.00 0.00 0.00 1 1016.4
20260503010514 60 105 4.0 7.0 0.00 0.00 0.00 1 1016.4
20260503010050 61 94 3.0 8.0 0.00 0.00 0.00 1 1016.5
20260503005516 61 95 5.0 9.0 0.00 0.00 0.00 1 1016.5
20260503005018 61 98 6.0 9.0 0.00 0.00 0.00 1 1016.5
20260503004550 60 101 7.0 9.0 0.00 0.00 0.00 1 1016.4
20260503004017 60 117 5.0 8.0 0.00 0.00 0.00 1 1016.7
20260503003515 60 98 6.0 8.0 0.00 0.00 0.00 1 1016.8
20260503003050 60 110 5.0 9.0 0.00 0.00 0.00 1 1016.8
20260503002518 60 94 7.0 9.0 0.00 0.00 0.00 1 1016.8
20260503002018 60 105 6.0 8.0 0.00 0.00 0.00 1 1016.7
20260503001543 60 105 4.0 8.0 0.00 0.00 0.00 1 1016.8
20260503001017 60 97 5.0 7.0 0.00 0.00 0.00 1 1017.1
20260503000514 61 97 4.0 7.0 0.00 0.00 0.00 1 1017.2
20260503000058 62 246 0.0 5.0 0.00 0.00 0.00 1 1017.2
20260502235517 62 246 1.0 9.0 0.00 0.00 0.00 1 1017.1
20260502235010 62 234 4.0 9.0 0.00 0.00 0.00 1 1017.2
20260502234554 62 225 4.0 8.0 0.00 0.00 0.00 1 1017.1
20260502234017 62 244 2.0 7.0 0.00 0.00 0.00 1 1017.2
20260502233516 62 130 2.0 8.0 0.00 0.00 0.00 1 1017.1
20260502233050 62 146 4.0 8.0 0.00 0.00 0.00 1 1017.2
20260502232514 63 228 3.0 9.0 0.00 0.00 0.00 1 1017.2
20260502232016 63 51 0.0 12.0 0.00 0.00 0.00 1 1017.1
20260502231551 62 313 3.0 12.0 0.00 0.00 0.00 1 1017.1